Flag for U.S.A. Weather past 2 weeks in Sacramento, California, U.S.A.

Now
80 °F

Sunny.


Feels Like: 80 °F
Forecast: 54 / 89 °F
Wind: 5 mph from North

Location: Sacramento Executive Airport

Current Time: May 30, 2015 at 2:01:18 PM

Latest Report: May 30, 2015 at 12:53 PM


Visibility: 10 mi

Pressure: 29.89 "Hg

Humidity: 42%

Dew point: 55 °F

Location of SacramentoLocation

Historic Weather in Sacramento — Graph

°F

Sacramento temperature yesterday

Maximum temperature yesterday: 87 °F (at 4:53 PM)
Minimum temperature yesterday: 53 °F (at 5:53 AM)
Average temperature yesterday: 68 °F

Past Weeks' High & Low Weather Summary

 TemperatureHumidityPressure
High87 °F (May 29, 4:53 PM)90% (May 28, 2:53 AM)30.08 "Hg (May 28, 2:53 AM)
Low52 °F (May 20, 3:53 AM)26% (May 29, 4:53 PM)29.83 "Hg (May 29, 5:53 PM)
Average63 °F65%29.94 "Hg
* Reported May 15 12:53 PM — May 30 12:53 PM, Sacramento, Weather by CustomWeather, © 2015

Note: Actual official high and low records may vary slightly from our data, if they occured in-between our weather recording intervals... More about our weather records

Advertising

Sacramento weather history for previous 24 hours

 ConditionsComfort  
Time TempWeatherWind HumidityBarometerVisibility
12:53 PM
Sat, May 30
80 °FSunny.5 mph42%29.89 "Hg10 mi
11:53 AM76 °FSunny.6 mph45%29.90 "Hg10 mi
10:53 AM72 °FSunny.5 mph53%29.91 "Hg10 mi
9:53 AM66 °FSunny.6 mph63%29.92 "Hg10 mi
8:53 AM61 °FSunny.6 mph72%29.92 "Hg10 mi
7:53 AM58 °FSunny.7 mph78%29.90 "Hg10 mi
6:53 AM56 °FSunny.10 mph84%29.89 "Hg10 mi
5:53 AM54 °FClear.6 mph86%29.88 "Hg10 mi
4:53 AM56 °FClear.7 mph84%29.86 "Hg10 mi
3:53 AM56 °FClear.5 mph81%29.86 "Hg10 mi
2:53 AM57 °FClear.3 mph78%29.86 "Hg10 mi
1:53 AM58 °FClear.3 mph78%29.87 "Hg10 mi
12:53 AM59 °FClear.5 mph75%29.88 "Hg10 mi
11:53 PM
Fri, May 29
60 °FClear.5 mph72%29.88 "Hg10 mi
10:53 PM62 °FClear.7 mph67%29.87 "Hg10 mi
9:53 PM65 °FClear.13 mph63%29.86 "Hg10 mi
8:53 PM70 °FSunny.10 mph55%29.85 "Hg10 mi
7:53 PM76 °FSunny.10 mph47%29.84 "Hg10 mi
6:53 PM83 °FSunny.7 mph28%29.83 "Hg10 mi
5:53 PM85 °FSunny.7 mph28%29.83 "Hg10 mi
4:53 PM87 °FSunny.9 mph26%29.85 "Hg10 mi
3:53 PM85 °FSunny.9 mph32%29.86 "Hg10 mi
2:53 PM85 °FSunny.7 mph28%29.88 "Hg10 mi
Weather by CustomWeather, © 2015

See weather overviewHow to use our weather pages